SL-12 R/B(2), 25927

Orbit data source: Space-Track

SL-12 R/B(2), 25927 is space debris in HEO originally from a launch on Sun, 26 Sep 1999 UTC launched from the Tyuratam Missile And Space Complex (TTMTR). Debris objects in space refer to the collection of defunct objects orbiting the Earth. Examples of debris include non-operational satellites, rocket bodies, and fragments generated from explosions, collisions, or faulty payload assembly.

Loading next visibility...
Identifier
25927, 1999-053D
Orbit
HEO
Country
Flag of CISCIS
Related business
Manufacturer
RKKE
Mission
Spacecraft
Bus & Motor
BLOK DM2, Unknown motor
Mass
2,560 kg wet, 2,560 kg dry
Launch date (UTC)
1999-09-26 (26 years ago)
Launch vehicle
Unknown
Launch site
Tyuratam Missile And Space Complex (TTMTR)
Object type
Payload
Rocket body
Debris
Shape & HBR
Cyl + 1 Nozzle, 3.1 m
Radar Cross Section
23.684 m², Large (>1 m²)

Expand to show TLE details & history
Last TLE update: 1 day ago

TLE from 1 day ago
0 SL-12 R/B(2)
1 25927U 99053D   25287.39183064 -.00000163  00000-0  00000-0 0  9990
2 25927  17.7950 340.0649 5328723 231.7104 178.4304  1.89349857179772
Epoch: 2025-10-14T09:24Z
TLE epoch observation values (Epoch: 2025-10-14T09:24:14.167Z)
Latitude
13.77186°
Longitude
-134.43982°
Altitude
35,946.636 km
Speed
2.096 km/s
True Right ascension
01h 59m 12s
True Declination
13° 45' 31"
Sunlit
Object was in daylight at epoch
Visualization orbit readout
Latitude
Unknown
Longitude
Unknown
Altitude
Unknown
Speed
Unknown
Apparent Right ascension
Unknown
Apparent Declination
Unknown
Sunlit
N/A
Visualization observer readout
Local Sidereal Time
05:51:43
Azimuth
Unknown
Elevation
Unknown
Doppler factor
Unknown
Orbital elements
Apogee altitude
35,930.958 km
Perigee altitude
6,515.142 km
Semi-major axis
27,601.187 km
Eccentricity
0.53287
Inclination
17.795°
RAAN
340.0649°
Arg. of periapsis
231.7104°
True anomaly
179.43472°
Mean anomaly
178.4304°
Eccentric anomaly
178.97602°
Mean motion
0.47332 °/min
Orbital period
760.59 mins
BSTAR
0
Loading maneuver chart data...
Computing Atmospheric mass density...
Loading historical data...
Loading historical data...
Loading historical data...
Loading historical data...
Loading historical data...
Loading historical data...
Loading historical data...
Other satellites on launch #53 in the year 1999 (1999-09-26 UTC)

Documentation

Showing up to 5 results
|